GJVV0G Weather Reports


time (UTC)temp
C
wind
direction
speed
KPH
gust
KPH
rain 1hr
cm
rain 24hr
cm
rain mn
cm
humidity
%
barometer
mb
20260906125928 18 101 1.6 4.8 0.00 0.00 0.00 99 1023.2
20260906124931 18 112 3.2 4.8 0.00 0.00 0.00 100 1022.9
20260906123930 18 93 3.2 6.4 0.00 0.00 0.00 100 1023.0
20260906121930 18 142 0.0 1.6 0.00 0.00 0.00 100 1022.6
20260906120929 18 45 0.0 0.0 0.00 0.00 0.00 99 1022.6
20260906115933 18 45 0.0 0.0 0.00 0.00 0.00 99 1022.3
20260906115030 18 315 0.0 0.0 0.00 0.00 0.00 100 1022.3
20260906114029 18 315 0.0 0.0 0.00 0.00 0.00 99 1022.1
20260906113128 18 315 0.0 0.0 0.00 0.00 0.00 99 1021.9
20260906112128 18 22 0.0 0.0 0.00 0.00 0.00 99 1021.9
20260906111130 18 22 0.0 0.0 0.00 0.00 0.00 99 1021.7
20260906110128 18 22 0.0 0.0 0.00 0.00 0.00 100 1021.7
20260906105129 18 22 0.0 0.0 0.00 0.00 0.00 100 1021.8
20260906104130 18 22 0.0 0.0 0.00 0.00 0.00 99 1021.8
20260906103230 18 22 0.0 0.0 0.00 0.00 0.00 100 1021.8
20260906102328 18 22 0.0 0.0 0.00 0.00 0.00 100 1021.7
20260906101330 18 22 0.0 0.0 0.00 0.00 0.00 99 1021.5
20260906100329 18 320 1.6 3.2 0.00 0.00 0.00 99 1021.2
20260906095328 18 315 0.0 0.0 0.00 0.00 0.00 100 1021.2
20260906094329 18 315 0.0 0.0 0.00 0.00 0.00 100 1021.1
20260906092330 17 315 0.0 0.0 0.00 0.00 0.00 100 1020.8
20260906090329 17 315 0.0 0.0 0.00 0.00 0.00 100 1021.0
20260906085329 17 315 0.0 0.0 0.00 0.00 0.00 100 1021.1
20260906084428 17 315 0.0 0.0 0.00 0.00 0.00 100 1021.0
20260906083428 17 315 0.0 0.0 0.00 0.00 0.00 100 1021.2
20260906082432 17 315 0.0 0.0 0.00 0.00 0.00 100 1021.2
20260906081529 17 315 0.0 0.0 0.00 0.00 0.00 100 1021.3
20260906080531 17 315 0.0 0.0 0.00 0.00 0.00 100 1021.0
20260906075628 17 315 0.0 0.0 0.00 0.00 0.00 100 1021.0
20260906074630 18 315 0.0 0.0 0.00 0.00 0.00 100 1021.3
20260906073628 18 315 0.0 0.0 0.00 0.00 0.00 100 1021.3
20260906072628 17 315 0.0 0.0 0.00 0.00 0.00 99 1021.3
20260906071644 17 315 0.0 0.0 0.00 0.00 0.00 99 1021.5
20260906070631 17 315 0.0 0.0 0.00 0.00 0.00 99 1021.5
20260906065630 17 315 0.0 0.0 0.00 0.00 0.00 98 1021.6
20260906064728 17 315 0.0 0.0 0.00 0.00 0.00 99 1021.7
20260906062828 17 315 0.0 0.0 0.00 0.00 0.00 99 1021.7
20260906061831 17 315 0.0 0.0 0.00 0.00 0.00 99 1021.7
20260906060830 17 315 0.0 0.0 0.00 0.00 0.00 99 1021.6
20260906055929 17 315 0.0 0.0 0.00 0.00 0.00 99 1021.6
20260906053930 18 315 0.0 0.0 0.00 0.00 0.00 99 1021.6
20260906052930 18 315 0.0 0.0 0.00 0.00 0.00 98 1021.6
20260906051928 18 315 0.0 1.6 0.00 0.00 0.00 99 1021.5
20260906050930 18 315 0.0 0.0 0.00 0.00 0.00 99 1021.4
20260906045929 18 315 0.0 0.0 0.00 0.00 0.00 99 1021.3
20260906044028 18 315 0.0 0.0 0.00 0.00 0.00 99 1021.3
20260906043030 18 315 0.0 0.0 0.00 0.00 0.00 98 1021.4
20260906042030 18 315 0.0 0.0 0.00 0.00 0.00 99 1021.5
20260906041029 19 315 0.0 0.0 0.00 0.00 0.00 98 1021.6
20260906040028 19 315 3.2 3.2 0.00 0.00 0.00 97 1021.5
20260906035029 19 315 0.0 0.0 0.00 0.00 0.00 97 1021.4
20260906034127 19 315 0.0 0.0 0.00 0.00 0.00 98 1021.2
20260906033144 19 315 0.0 0.0 0.00 0.00 0.00 98 1021.1
20260906032228 19 315 0.0 0.0 0.00 0.00 0.00 97 1020.9
20260906031229 19 315 0.0 0.0 0.00 0.00 0.00 98 1020.7
20260906030228 19 315 0.0 0.0 0.00 0.00 0.00 98 1020.6
20260906022247 19 315 0.0 0.0 0.00 0.00 0.00 96 1020.1
20260906021230 20 315 0.0 0.0 0.00 0.00 0.00 97 1020.1
20260906020327 19 315 0.0 1.6 0.00 0.00 0.00 95 1020.0
20260906015328 19 315 0.0 0.0 0.00 0.00 0.00 96 1019.8
20260906014346 20 315 0.0 0.0 0.00 0.00 0.00 94 1019.4
20260906013430 20 315 0.0 0.0 0.00 0.00 0.00 94 1019.2
20260906012429 20 315 0.0 0.0 0.00 0.00 0.00 94 1018.9
20260906011429 20 315 0.0 0.0 0.00 0.00 0.00 93 1018.8
20260906005530 21 315 0.0 3.2 0.00 0.00 0.00 93 1018.5
20260906004627 21 315 1.6 3.2 0.00 0.00 0.00 92 1018.5
20260906002630 22 315 3.2 3.2 0.00 0.00 0.00 90 1018.5
20260906001628 22 315 0.0 0.0 0.00 0.00 0.00 88 1018.3
20260905235527 23 67 0.0 0.0 0.00 0.00 0.00 86 1018.2
20260905233529 23 250 1.6 4.8 0.00 0.00 0.00 83 1018.3
20260905232529 24 247 0.0 1.6 0.00 0.00 0.00 79 1018.6
20260905231627 24 102 4.8 6.4 0.00 0.00 0.00 78 1018.5
20260905230628 24 87 4.8 11.3 0.00 0.00 0.00 78 1018.6
20260905225728 24 106 4.8 9.7 0.00 0.00 0.00 78 1018.6
20260905224729 24 105 8.0 12.9 0.00 0.00 0.00 78 1018.6
20260905223730 25 99 6.4 9.7 0.00 0.00 0.00 77 1018.8
20260905222729 25 99 9.7 14.5 0.00 0.00 0.00 78 1018.8
20260905221744 25 106 8.0 12.9 0.00 0.00 0.00 77 1018.6
20260905220729 25 99 6.4 11.3 0.00 0.00 0.00 77 1018.6
20260905215730 25 105 6.4 11.3 0.00 0.00 0.00 78 1018.7
20260905214828 25 101 9.7 16.1 0.00 0.00 0.00 78 1018.7
20260905213928 25 107 6.4 11.3 0.00 0.00 0.00 78 1019.0
20260905212929 25 85 6.4 11.3 0.00 0.00 0.00 78 1019.1
20260905211929 25 97 8.0 11.3 0.00 0.00 0.00 76 1019.2
20260905210946 26 124 4.8 11.3 0.00 0.00 0.00 76 1019.2
20260905205944 26 108 9.7 12.9 0.00 0.00 0.00 73 1019.1
20260905204029 27 95 6.4 11.3 0.00 0.00 0.00 73 1019.0
20260905203127 27 105 6.4 11.3 0.00 0.00 0.00 73 1019.0
20260905201127 26 101 3.2 4.8 0.00 0.00 0.00 75 1019.1
20260905200129 26 90 3.2 6.4 0.00 0.00 0.00 75 1019.3
20260905194128 27 126 6.4 9.7 0.00 0.00 0.00 72 1019.2
20260905193129 26 105 6.4 9.7 0.00 0.00 0.00 73 1019.2
20260905191227 27 134 3.2 6.4 0.00 0.00 0.00 72 1019.4
20260905190227 26 135 1.6 3.2 0.00 0.00 0.00 74 1019.5
20260905185228 27 112 3.2 6.4 0.00 0.00 0.00 72 1019.5
20260905183227 27 202 1.6 4.8 0.00 0.00 0.00 74 1019.3
20260905182228 26 137 4.8 8.0 0.00 0.00 0.00 77 1019.4
20260905180329 25 91 6.4 9.7 0.00 0.00 0.00 78 1019.5
20260905175328 25 142 3.2 6.4 0.00 0.00 0.00 78 1019.6
20260905173329 25 112 0.0 1.6 0.00 0.00 0.00 81 1019.8
20260905172328 25 135 4.8 6.4 0.00 0.00 0.00 81 1019.9
20260905171327 25 116 3.2 8.0 0.00 0.00 0.00 83 1019.9
20260905170344 24 157 3.2 4.8 0.00 0.00 0.00 86 1019.9
20260905165327 23 113 1.6 4.8 0.00 0.00 0.00 88 1020.3
20260905164327 23 119 3.2 4.8 0.00 0.00 0.00 87 1020.1
20260905162329 23 150 0.0 3.2 0.00 0.00 0.00 88 1020.2
20260905161426 23 112 3.2 4.8 0.00 0.00 0.00 89 1020.0
20260905155442 23 121 4.8 6.4 0.00 0.00 0.00 91 1020.1
20260905154528 23 102 4.8 6.4 0.00 0.00 0.00 91 1020.0
20260905153528 23 138 3.2 6.4 0.00 0.00 0.00 91 1020.0
20260905152627 22 7 0.0 3.2 0.00 0.00 0.00 93 1019.9
20260905151629 22 94 4.8 6.4 0.00 0.00 0.00 92 1019.9
20260905145629 22 95 6.4 9.7 0.00 0.00 0.00 92 1019.6
20260905143727 22 130 1.6 3.2 0.00 0.00 0.00 92 1019.7
20260905142730 22 110 4.8 8.0 0.00 0.00 0.00 93 1019.6
20260905141728 22 99 1.6 4.8 0.00 0.00 0.00 93 1019.4
20260905140742 22 144 3.2 6.4 0.00 0.00 0.00 94 1019.3
20260905135827 22 116 3.2 9.7 0.00 0.00 0.00 94 1019.1
20260905134826 22 73 3.2 6.4 0.00 0.00 0.00 94 1019.2
20260905133827 22 84 6.4 9.7 0.00 0.00 0.00 95 1019.0
20260905132926 22 120 3.2 6.4 0.00 0.00 0.00 94 1018.7
20260905131942 22 129 0.0 8.0 0.00 0.00 0.00 96 1018.7
20260905130943 22 112 4.8 8.0 0.00 0.00 0.00 96 1018.4